Preview of NWS' New Version of Forecast
This preview is not operational and should not be used for support decisions.

Regional Weather Roundup (RWR)

Issued by National Weather Service (NWS)

                            
000
ASUS43 KDMX 241106
RWRIA 

WEATHER ROUNDUP FOR IOWA
NATIONAL WEATHER SERVICE DES MOINES IA
600 AM CDT MON JUN 24 2019

NOTE: "FAIR" INDICATES FEW OR NO CLOUDS BELOW 12,000 FEET WITH NO
SIGNIFICANT WEATHER AND/OR OBSTRUCTIONS TO VISIBILITY.

* - THESE STATIONS ARE NOT NWS STATIONS...THUS NOT UNDER NWS
QUALITY CONTROL.  THEY ALSO DO NOT REPORT WEATHER SUCH 
AS PRECIPITATION OR FOG.  

IAZ001>003-012>014-020>022-031>034-043>046-241200-
   NORTHWEST IOWA
  
CITY           SKY/WX    TMP DP  RH WIND       PRES   REMARKS
CARROLL *      CLOUDY    61  57  88 NW14      29.71R                  
CHEROKEE *     CLOUDY    59  58  97 N3        29.72S                  
DENISON *      CLOUDY    59  59 100 NW6G14    29.75R                  
LE MARS *      MOCLDY    59  59 100 CALM      29.73R                  
SHELDON *      LGT RAIN  59  59 100 W6        29.71R                  
SIOUX CITY     CLEAR     57  55  93 W5        29.73S                  
SPENCER        CLOUDY    61  58  90 W6        29.71R                  
STORM LAKE *   CLOUDY    57  57 100 NW12      29.70R                  
$$
 
IAZ055>058-069>071-079>083-090>094-241200-
   SOUTHWEST IOWA
  
CITY           SKY/WX    TMP DP  RH WIND       PRES   REMARKS
ATLANTIC *     CLOUDY    61  61 100 NW12      29.73S                  
AUDUBON *      CLOUDY    61  55  82 CALM      29.74R                  
CLARINDA *     CLOUDY    63  59  88 NW9G17    29.76S                  
COUNCIL BLFS * CLOUDY    61  61 100 W6        29.74S                  
CRESTON *      CLOUDY    61  59  94 NW15      29.73R                  
HARLAN  *      CLOUDY    61  59  94 NW10      29.74R                  
LAMONI         MOCLDY    63  60  90 W10       29.72R                  
RED OAK *      CLOUDY    61  59  94 NW9       29.75S                  
SHENANDOAH *   MOCLDY    61  61 100 W5        29.75R                  
$$
 
IAZ047>049-059>061-072>074-084-241200-
   CENTRAL IOWA
  
CITY           SKY/WX    TMP DP  RH WIND       PRES   REMARKS
AMES           CLOUDY    62  59  90 W10       29.68R                  
ANKENY *       CLOUDY    63  59  88 NW13G23   29.69R                  
BOONE *        CLOUDY    61  61 100 NW12      29.68R                  
CHARITON *     CLOUDY    64  64 100 W16       29.70R                  
DES MOINES     CLOUDY    62  59  90 NW13      29.68R                  
GRINNELL*      MOCLDY    65  64  95 W9        29.66S                  
KNOXVILLE *    CLOUDY    66  63  88 W13       29.67R                  
MARSHALLTOWN   LGT RAIN  65  65 100 W15G23    29.63R                  
NEWTON *       CLOUDY    66  64  94 W9G17     29.66R                  
PELLA *        CLOUDY    67  63  89 W10G16    29.68R                  
PERRY *        CLOUDY    62  61  95 NW13      29.71R                  
$$
 
IAZ004>006-015-016-023>025-035-036-241200-
   NORTH CENTRAL IOWA
  
CITY           SKY/WX    TMP DP  RH WIND       PRES   REMARKS
ALGONA *       CLOUDY    61  61 100 W12       29.68R                  
CLARION *      CLOUDY    61  61 100 NW10      29.68R                  
ESTHERVILLE    CLOUDY    59  55  87 W10       29.70R                  
FORT DODGE *   CLOUDY    61  59  93 W7        29.69R                  
MASON CITY     CLOUDY    62  58  86 NW12      29.66R                  
FOREST CITY *  CLOUDY    61  59  94 NW9G16    29.66R                  
IOWA FALLS *   CLOUDY    63  62  97 W12       29.66R                  
$$

IAZ007>011-017>019-026>030-037>042-050>054-066-241200-
   NORTHEAST IOWA
  
CITY           SKY/WX    TMP DP  RH WIND       PRES   REMARKS
CEDAR RAPIDS   MOCLDY    66  65  96 W8        29.62S                  
CHARLES CITY * CLOUDY    64  64 100 W8        29.62S FOG              
CLINTON *      LGT RAIN  68  67  96 W10       29.64R FOG              
DECORAH *      MOCLDY    64  64 100 VRB5      29.60S                  
DUBUQUE        CLOUDY    66  65  96 SW7       29.63S FOG              
MONTICELLO *   CLOUDY    66  66 100 CALM      29.63R                  
OELWEIN *      MOCLDY    64  66 100 SW3       29.63S FOG              
WATERLOO       CLOUDY    67  64  90 W6        29.61S                  
$$
 
IAZ064-065-067-068-078-241200-
   EAST CENTRAL IOWA
  
CITY           SKY/WX    TMP DP  RH WIND       PRES   REMARKS
DAVENPORT      CLOUDY    69  66  90 W7        29.66R                  
IOWA CITY      FAIR      68  65  90 W8        29.65R                  
MT. PLEASANT * CLOUDY    66  66 100 CALM      29.66S                  
MUSCATINE *    CLOUDY    70  66  88 SW7       29.65R                  
QUAD CITIES    LGT RAIN  70  67  90 W9        29.63S FOG              
$$
 
IAZ062-063-075>077-085>089-095>099-241200-
   SOUTHEAST IOWA
  
CITY           SKY/WX    TMP DP  RH WIND       PRES   REMARKS
BURLINGTON     PTCLDY    67  65  93 SW6       29.66R                  
FAIRFIELD *    CLOUDY    66  66 100 W9        29.67R                  
FORT MADISON * CLEAR     66  66 100 SW6       29.67F                  
KEOKUK *       PTCLDY    66  66 100 SW7       29.67S                  
OSKALOOSA *    CLOUDY    65  63  91 W10       29.67R                  
CENTERVILLE *  FAIR      64  64 100 W10       29.71R                  
OTTUMWA        MOCLDY    67  64  90 W10       29.66R                  
WASHINGTON *   MOCLDY    66  66 100 W7        29.64R                  
$$

ABBREVIATIONS USED IN REMARKS
   TC - TEMPERATURES IN CELSIUS
  WCI - WIND CHILL INDEX
   HX - HEAT INDEX
  VSB - VISIBILITY  
$$